Theta_e
309 309 309 309 309 308 307 307 307 308 309 307 304 303 303 304 308 309 309 305 312 305 310 309 307 309 309 309 315 321 329 329 327 325 325 324 326 324 324 324 324 323 323 325 340
309 309 309 309 309 309 309 307 308 308 308 305 302 303 303 308 312 311 310 306 310 311 305 305 309 309 306 309 311 317 321 326 326 325 326 325 325 324 325 323 324 324 324 323 336
307 307 307 308 309 309 309 308 307 308 307 303 302 304 304 311 312 314 313 312 310 305 309 307 311 309 309 309 311 314 319 322 323 321 321 321 320 321 321 322 322 322 321 320 324
310 310 309 309 308 308 309 308 309 307 303 301 304 304 306 314 318 316 310 308 307 308 311 313 310 307 309 310 309 311 312 310 311 311 311 314 314 314 315 317 318 316 315 321 321
310 311 310 309 309 306 308 309 308 306 301 302 306 305 311 312 315 316 309 309 309 310 312 312 308 307 307 308 309 309 309 309 309 309 310 311 312 313 314 314 315 316 315 316 318
310 309 308 310 310 308 308 308 307 303 301 303 307 307 312 307 312 314 310 309 310 312 311 311 309 308 308 308 309 308 308 308 308 309 309 311 312 313 315 315 315 316 315 315 315
309 308 309 310 310 307 307 303 303 303 301 304 306 312 312 302 310 312 311 310 310 311 309 309 310 309 307 308 307 308 307 305 307 309 309 309 310 312 313 314 315 315 314 314 314
309 308 308 309 307 305 305 306 306 303 301 306 307 313 307 310 313 312 310 310 309 308 309 310 310 308 309 307 305 306 303 304 305 307 309 309 310 311 310 311 313 312 312 312 312
308 307 307 307 303 304 306 311 311 307 305 309 312 311 314 313 310 309 309 308 308 309 309 309 308 306 305 306 305 305 307 307 307 307 308 309 309 310 310 311 311 312 311 311 311
308 306 306 305 303 305 308 312 312 312 313 312 312 312 312 315 314 309 308 307 307 308 308 307 303 305 303 304 307 308 309 308 308 308 308 309 310 309 310 310 310 311 311 311 311
304 301 303 304 304 306 310 310 305 306 314 309 313 313 314 313 310 308 308 309 308 306 306 305 306 306 306 306 307 308 309 309 308 308 310 309 310 310 310 309 309 309 310 311 311
304 303 303 304 304 310 310 309 310 309 308 308 308 312 312 313 311 310 309 308 308 307 306 305 306 306 306 306 307 308 309 308 309 310 310 309 311 310 310 309 308 309 309 309 309
304 304 304 304 307 310 310 310 309 308 308 308 309 310 310 311 311 310 307 307 308 307 306 306 307 307 307 308 310 309 310 309 311 311 310 310 310 309 308 308 308 307 307 307 307
304 305 305 307 310 310 310 311 310 309 309 312 310 310 310 308 309 309 308 308 307 307 305 306 306 307 307 309 310 311 309 311 311 310 310 311 313 310 308 308 308 306 305 304 304
304 305 306 307 309 309 311 310 310 309 312 312 308 308 306 307 308 309 308 307 307 307 305 306 307 306 307 308 311 308 310 310 309 310 312 311 310 308 308 308 307 306 304 306 311
306 308 306 311 309 311 311 310 311 310 314 311 309 309 309 308 308 308 308 307 307 306 306 305 305 306 306 309 311 309 308 305 306 306 309 308 310 308 307 307 307 306 308 312 313
309 310 306 308 308 309 311 308 312 314 311 311 310 308 309 310 309 309 309 309 307 308 307 307 308 307 311 310 306 305 304 306 305 307 309 308 309 308 307 308 308 308 312 313 311
311 312 309 309 311 313 309 309 316 312 309 310 309 308 311 310 310 308 308 309 310 307 307 309 310 308 309 308 309 307 306 306 309 312 307 306 309 307 307 307 311 315 313 312 311
313 314 314 313 313 311 306 309 311 310 309 308 309 312 311 310 310 308 308 309 310 309 309 309 312 309 309 309 308 308 306 304 306 308 308 308 308 307 308 309 314 313 312 311 309
312 312 313 311 308 309 308 313 313 312 311 308 310 311 311 310 310 310 309 310 312 310 307 309 311 310 309 309 308 308 306 309 302 307 306 308 310 310 309 309 310 312 310 310 310
310 310 311 310 308 307 309 312 313 311 311 309 309 309 309 310 310 310 310 309 311 310 308 308 309 310 310 310 308 306 307 310 305 305 309 313 309 308 309 308 309 310 310 310 310
305 309 310 310 307 302 308 310 310 310 310 310 308 308 309 310 310 310 310 309 310 309 310 309 307 311 311 308 307 305 307 307 307 311 311 311 312 309 309 309 311 311 311 310 310
304 305 309 307 303 303 303 307 308 310 311 310 310 308 307 309 310 310 311 309 308 308 310 309 309 312 309 306 307 310 309 309 309 310 313 314 311 308 310 311 310 310 312 312 313
301 304 300 298 300 304 305 307 310 310 310 308 308 307 308 308 307 309 310 309 307 307 310 311 309 311 311 308 305 310 311 310 313 315 312 312 311 310 310 310 310 312 313 313 315
298 302 300 299 300 303 304 306 309 310 307 306 307 308 308 308 307 307 307 307 306 307 307 307 310 310 311 312 312 313 313 313 314 313 316 313 312 311 310 310 313 313 315 314 313
301 300 298 299 301 303 304 305 306 307 306 307 307 306 306 305 306 307 306 306 306 306 307 308 310 310 313 312 312 311 310 311 313 313 313 314 314 312 311 312 313 312 312 312 314
299 299 302 301 301 302 301 304 306 304 305 305 305 304 304 304 303 302 302 304 305 306 307 307 308 310 310 309 311 313 312 311 311 311 312 314 312 310 312 313 311 311 312 312 312
Wind_Speed
18 19 19 19 18 18 18 17 16 15 14 14 13 14 16 20 22 12 7 5 2 8 6 9 6 3 4 2 3 3 1 4 5 5 2 3 3 3 3 5 5 4 4 5 6
19 19 20 20 20 20 18 17 16 16 14 13 12 14 17 18 16 10 3 5 3 1 3 4 2 2 2 3 3 4 4 7 1 3 2 6 0 6 4 6 3 5 7 16 6
20 20 20 21 21 21 20 19 17 16 15 13 12 15 14 12 4 4 1 4 4 0 1 1 2 0 3 3 3 3 5 3 1 1 2 5 8 3 5 6 3 10 11 10 5
22 22 21 22 21 20 20 18 17 16 13 10 11 12 11 3 2 2 1 3 4 2 2 1 2 2 2 4 2 0 3 4 5 5 4 3 7 7 9 5 7 8 9 7 9
23 22 23 24 22 21 20 18 17 14 10 8 9 9 4 2 7 1 3 4 2 2 1 1 4 2 1 2 2 3 2 6 7 6 6 7 8 7 19 8 9 9 8 9 9
25 25 25 25 24 22 20 18 15 11 6 6 8 4 2 2 2 0 5 4 5 3 1 3 3 3 2 2 1 2 2 5 6 6 5 6 13 5 17 5 9 7 9 8 7
26 26 26 26 24 22 19 16 12 8 4 3 4 0 1 8 1 3 5 5 4 7 2 4 3 2 3 3 0 4 5 5 6 4 5 8 10 16 6 6 8 8 7 8 7
27 27 28 27 25 21 18 17 11 6 3 2 2 2 6 2 5 6 8 9 7 7 8 4 4 3 2 0 6 4 4 3 5 4 4 7 6 5 4 7 5 6 5 7 7
28 29 28 29 24 19 18 8 5 2 3 4 3 2 6 7 3 6 8 4 3 3 3 2 4 4 5 3 5 4 1 2 7 5 4 0 4 7 13 5 6 9 6 5 6
28 28 28 27 22 16 13 7 9 8 7 4 1 1 4 2 5 3 6 9 1 2 4 6 5 3 3 4 2 3 2 3 4 6 5 8 7 6 6 7 9 8 7 6 6
28 28 27 25 17 12 9 0 4 3 3 5 2 3 4 10 1 3 3 2 3 7 2 3 4 3 5 5 5 3 3 5 5 5 5 8 16 10 7 7 9 8 7 7 6
29 27 25 18 10 6 7 4 3 5 6 5 5 5 9 5 3 5 2 3 2 1 1 5 3 5 4 5 4 4 3 4 5 5 7 9 23 18 13 8 8 7 7 8 3
30 27 22 11 1 4 6 5 13 1 0 6 4 3 4 8 5 5 7 3 3 3 4 5 5 2 3 2 3 3 4 3 5 3 5 7 9 5 5 2 3 6 7 7 5
30 25 16 6 3 1 1 11 10 1 4 3 2 3 3 3 4 6 10 5 1 7 5 4 3 3 3 2 4 3 4 4 5 4 3 4 6 2 8 9 4 8 9 8 8
25 18 9 1 1 1 5 14 3 2 3 1 1 1 1 4 3 3 4 3 8 4 5 7 2 4 2 5 5 7 3 3 3 3 2 3 4 5 4 4 8 9 7 6 9
17 8 3 1 0 3 13 9 3 5 1 2 2 4 4 4 3 5 3 4 2 5 2 7 2 3 5 2 3 3 4 5 4 2 2 6 5 1 2 6 6 6 7 7 7
10 6 2 1 2 11 13 2 4 4 3 3 2 4 1 4 5 5 2 4 3 1 3 3 2 1 2 2 3 5 6 5 4 2 5 1 4 8 10 17 6 8 8 9 8
7 6 3 5 10 11 5 4 3 1 1 1 2 4 1 4 3 6 1 1 4 4 1 2 4 3 0 3 4 4 6 4 5 3 6 3 8 7 6 9 7 6 7 8 9
7 5 3 6 9 8 4 4 5 0 3 3 5 1 2 2 3 5 1 5 5 4 5 3 4 4 3 4 6 2 3 4 2 2 2 5 8 12 15 12 5 7 8 9 7
5 6 4 10 8 3 4 3 3 1 3 2 4 3 4 3 2 4 3 3 4 6 2 3 4 4 5 1 2 5 5 0 3 3 5 5 6 10 11 15 5 9 10 9 6
3 3 6 11 3 5 3 4 4 4 3 4 5 4 5 3 5 3 5 4 5 4 3 4 3 4 3 4 6 1 1 3 3 4 4 5 6 5 6 9 9 8 8 10 8
4 2 9 8 4 1 1 1 4 5 3 4 2 6 6 5 4 5 7 7 5 6 4 3 4 4 9 7 4 5 6 6 3 4 4 3 15 4 14 13 7 11 13 8 8
2 3 5 5 2 3 5 4 3 3 3 4 3 1 1 4 3 6 5 2 6 4 6 4 2 3 6 2 3 3 5 5 3 1 9 8 12 4 4 7 14 15 12 10 6
3 4 4 4 1 2 3 4 4 3 2 3 3 2 2 2 5 4 2 2 3 4 4 6 6 7 9 6 3 8 14 10 7 5 9 18 26 22 18 17 12 12 11 10 10
3 0 2 4 3 2 2 3 3 3 3 3 2 2 2 3 3 5 5 3 4 7 5 6 8 9 13 13 11 14 18 18 16 20 13 27 18 21 19 17 9 7 7 12 14
2 3 3 2 2 3 4 4 2 3 2 4 3 3 3 5 8 16 10 3 7 5 4 3 4 4 4 7 12 19 22 20 19 19 18 25 24 21 19 5 6 8 11 12 10
4 2 2 2 3 1 3 4 2 2 7 8 4 6 8 11 9 10 10 9 9 7 5 4 3 3 9 7 7 10 17 13 6 6 6 7 15 5 5 6 6 10 14 12 9
Wind_Direction
348 346 344 342 338 334 332 330 327 324 320 319 322 323 323 323 319 315 237 233 51 234 289 312 291 221 160 223 207 138 115 236 232 134 211 243 54 315 298 274 336 324 1 309 341
347 344 342 342 339 335 330 327 325 322 319 321 324 323 325 325 317 273 316 206 204 17 324 0 42 114 144 214 191 163 170 216 332 113 21 293 344 329 302 316 288 315 336 347 346
349 345 342 338 335 332 328 325 323 320 318 320 326 324 329 331 307 264 22 161 172 214 349 227 291 152 174 183 197 182 211 205 270 130 255 274 297 222 294 295 356 315 321 332 347
343 340 338 336 333 331 327 323 319 316 316 322 328 334 333 333 139 346 114 150 172 227 329 86 63 80 154 188 351 194 286 5 322 346 320 287 314 288 261 264 304 303 293 297 320
342 341 339 337 333 331 326 320 315 310 314 320 325 343 348 313 252 31 179 182 217 285 332 11 67 87 213 291 350 155 355 321 305 295 282 289 272 272 279 284 280 291 296 288 283
340 341 339 335 331 329 325 320 313 306 304 311 322 350 338 281 329 314 203 216 253 248 253 183 178 184 120 16 81 307 239 271 265 239 246 252 275 246 268 18 321 285 284 273 278
338 340 337 332 330 328 330 336 324 304 279 294 326 51 15 234 333 358 224 242 263 244 262 222 204 99 134 347 353 315 318 310 228 232 237 202 257 251 310 352 264 297 324 305 318
339 341 339 334 330 336 339 332 304 273 236 220 138 164 246 229 293 252 242 261 268 261 227 275 164 100 73 353 20 34 36 357 290 338 280 151 263 317 49 359 315 305 317 318 327
341 340 338 334 335 338 345 5 18 151 161 151 144 180 275 315 261 254 238 233 241 230 241 137 94 83 28 63 10 359 238 288 313 322 279 6 280 314 327 325 295 300 291 285 297
336 337 336 336 337 340 354 69 88 101 105 123 249 347 286 309 316 237 244 248 283 336 31 48 52 77 48 77 220 254 303 291 263 297 354 304 287 288 305 310 290 287 299 293 307
335 337 335 334 333 341 3 164 18 355 174 210 204 264 281 328 289 244 248 126 69 56 42 11 75 199 225 214 214 232 203 221 257 267 343 293 289 284 265 265 274 268 269 281 280
335 334 333 335 333 18 33 67 31 278 314 242 240 255 268 268 322 300 234 140 107 218 55 24 224 221 228 228 199 208 245 261 283 297 314 294 290 288 263 235 225 251 272 271 252
337 333 333 333 81 71 81 43 348 51 207 300 202 197 220 159 219 257 150 146 170 201 188 160 226 202 213 270 211 217 229 245 243 281 271 302 290 296 330 265 235 263 255 270 280
337 333 336 342 123 47 78 346 338 134 55 301 314 304 152 189 274 222 187 154 162 210 182 225 248 226 341 268 148 282 217 248 282 358 297 60 280 228 234 251 302 279 288 294 298
341 337 343 66 90 112 332 331 336 94 68 199 260 136 36 180 320 285 163 88 213 189 112 247 229 233 265 235 170 234 352 286 278 282 345 289 293 260 143 210 287 295 264 271 295
349 350 12 111 285 344 336 334 114 48 144 324 49 4 355 317 298 296 149 55 135 173 190 239 249 203 218 180 189 344 4 353 47 73 326 242 199 216 179 122 264 265 287 281 282
6 19 54 133 336 336 334 70 42 113 332 338 325 354 286 315 342 13 22 28 190 140 306 332 256 311 139 69 22 70 49 338 334 7 233 189 295 248 288 302 250 260 275 292 299
19 33 38 333 324 332 350 57 103 174 280 226 293 320 167 2 320 335 53 155 30 82 141 197 309 197 3 166 204 232 151 167 255 223 270 304 258 257 241 252 232 241 278 287 300
1 0 19 359 332 333 71 61 189 287 333 277 323 96 307 326 15 3 322 202 193 175 175 176 257 291 241 201 140 194 166 192 246 202 349 222 289 297 271 257 280 265 255 277 291
353 342 348 341 333 11 75 225 233 243 319 221 220 189 225 242 298 13 284 201 199 199 129 215 288 242 282 10 234 165 166 197 11 296 264 258 251 244 288 288 249 287 295 297 294
8 44 350 341 350 48 125 242 285 282 307 221 215 247 232 228 204 216 245 266 189 165 146 158 163 280 337 216 206 144 277 90 148 163 222 296 253 217 241 263 269 269 274 279 280
8 9 355 1 44 50 159 282 289 276 7 310 237 217 209 211 230 227 226 216 148 146 184 189 157 246 236 248 212 168 201 167 167 236 224 231 270 257 270 279 293 288 296 260 258
35 280 354 9 80 333 314 297 267 288 333 324 306 32 38 225 260 215 230 179 145 138 169 184 214 303 308 26 9 177 194 192 183 253 237 261 267 13 312 302 302 301 288 268 257
48 356 332 38 22 100 349 266 282 322 250 306 273 94 357 277 234 279 252 241 183 176 248 178 193 194 236 236 177 271 268 248 223 248 277 245 274 280 286 292 298 296 298 279 259
26 5 175 304 339 343 233 276 282 287 0 304 289 285 231 270 289 251 249 260 258 278 272 183 241 213 247 254 259 265 270 269 252 255 249 276 272 278 281 287 274 284 291 305 313
67 25 359 272 295 288 222 247 252 347 312 282 236 304 258 229 224 275 282 245 234 284 197 180 257 193 256 235 257 269 267 258 255 258 254 259 268 270 275 256 258 285 307 307 307
30 45 109 280 324 4 240 266 227 51 252 236 336 323 283 267 245 248 236 237 236 209 215 182 196 300 274 240 272 273 253 242 214 206 212 246 254 263 254 260 278 300 301 294 309